默认 日期 大小 文件数 浏览量 最新下载 xml
of -磁力链接相关资源由用户搜索指令自动获取,结果来源于网络,本站不存储任何资料,亦不承担任何责任,请于24小时内删除,搜索到1412162个磁力,显示前4000条数据,用时334ms。
    {"【NTR狂喜】绿帽淫妻夫妇「hotcouplelovelysex」OF私拍 献妻旁观沾着单男精液轮流内射.mp4": 106218340}
创建时间: 2026-04-21 08:36:50 大小:101.3 MB 文件数量:1 热度:0
    {"P站20万粉华裔网黄「北京瑶瑶」「Lonelymeow」OF旅游性爱日记 3P百合爆菊潮吹露出.mp4": 287118428}
创建时间: 2026-04-21 08:35:29 大小:273.82 MB 文件数量:1 热度:0
    {"越南阿黑颜OF网红博主「yuumeilyn」OF露脸自慰啪啪.mp4": 93129325}
创建时间: 2026-04-21 08:35:01 大小:88.82 MB 文件数量:1 热度:0
    ... Slaves.flac": 25256180, "03. Litany Of Martyrs.flac": 28472854, "08. Flowing ... Damnation.flac": 28911975, "05. Abysses Of Seclusion.flac": 37003965, "02. Dirges ... .flac": 21766014, "04. Transcendental State Of Absolute Suffering.flac": 27844624}
创建时间: 2026-04-21 08:34:52 大小:226.7 MB 文件数量:13 热度:0
    ... UIndex.org .txt": 127, "House of Villains S03E10 It Feels So ... 264-Kitsune.mkv": 4930241556, "House of Villains S03E10 It Feels So ...
创建时间: 2026-04-21 08:28:27 大小:4.59 GB 文件数量:3 热度:0
    {"Torrent Downloaded From UIndex.org .txt": 127, "Will Trent S04E15 The Bleak Expanse of Nothing 1080p AMZN WEB-DL DDP5 1 H 264-NTb.mkv": 3230757103, "Will Trent S04E15 The Bleak Expanse of Nothing 1080p AMZN WEB-DL DDP5 1 H 264-NTb.mkv.nfo": 909}
创建时间: 2026-04-21 08:28:24 大小:3.01 GB 文件数量:3 热度:0
    ... 10292569, "1-05. Members Of Mayday - Troopa Of Tomorrow (Short).mp3": 8552835 ... "2-06. The Age Of Love - Age Of Love (Marc et Claude ... "2-04. The Age Of Love - Age Of Love.mp3": 13449149, "2 ... }, "2011 - Dream Dance - Best Of 15 Years - Extended Versions": {"folder ...
创建时间: 2026-04-21 08:27:27 大小:43.74 GB 文件数量:5565 热度:0
    {"【口交控狂喜】极品高颜值爆炸身材阿黑颜口交皇后「Ruthy」OF露脸私拍 颜值即正义!素颜即巅峰!.mp4": 234768658}
创建时间: 2026-04-21 08:25:59 大小:223.89 MB 文件数量:1 热度:0
    {".pad": {"810034": 810034, "953726": 953726}, "www.YTS.AM.jpg": 58132, "The.Secret.Sex.Life.Of.A.Single.Mom.2014.1080p.WEBRip.x264-[YTS.AM].mp4": 1499702222, "The.Secret.Sex.Life.Of.A.Single.Mom.2014.720p.WEBRip.x264-.YTS.AM.-hr.srt": 94850}
创建时间: 2026-04-21 08:24:32 大小:1.4 GB 文件数量:5 热度:0
    ... ": 547240, "screen0004.png": 957565}, "Mayor.Of.Kingstown.S04E04.720p.WEB.h264 ... UIndex.org .txt": 129, "mayor.of.kingstown.s04e04.720p.web.h264 ...
创建时间: 2026-04-21 08:24:31 大小:1.08 GB 文件数量:7 热度:0
    ... Road.flac": 124915471, "05 - Aegis Of Eternity.flac": 118531039, "06 - Camelot ... .flac": 131784724, "02 - Glade Lords Of Athel Loren.flac": 150938302, "07 ... - Keeper Of The Crimson Dungeon.flac": 105987287 ...
创建时间: 2026-04-21 08:23:35 大小:1.03 GB 文件数量:10 热度:0
    {"台湾强力桩机约炮王大屌侠「svet19」OF公开募集粉丝炮友私拍.mp4": 39988326}
创建时间: 2026-04-21 08:18:33 大小:38.14 MB 文件数量:1 热度:0
    {"01.webp": 182000, "02.webp": 669946, "03.webp": 881004, "04.webp": 946736, "05.webp": 906176, "06.webp": 998370, "07.webp": 1030118, "08.webp": 917734, "09.webp": 850850, "10.webp": 818750, "11.webp": 918040, "12.webp": 850778, "13.webp": 914772, "14. ...
创建时间: 2026-04-21 08:14:29 大小:34.14 MB 文件数量:42 热度:0
    {"在这里,性感女主播将为你带来无与伦比的快感!.mp4": 1515273, "韩国绿帽淫妻骚母狗「ddu_ddu」OF私拍 钟爱3P和吞精.mp4": 406113107}
创建时间: 2026-04-21 08:06:47 大小:388.74 MB 文件数量:2 热度:0
    ... }, "1995 - Last Days Of Humanity & Confessions Of Obscurity - Pathological Dreams & Infected ... , "03 Last Days Of Humanity - Anomaly of the Fundamental Proportionated Particles ... , "25 Last Days Of Humanity - Examination Of Reeking Putrifying Organs, Tissues ...
创建时间: 2026-04-20 19:58:45 大小:1.64 GB 文件数量:704 热度:0
    {"Provided by PornRips.to.nfo": 47, "HotMilfsFuck.26.04.12.Indra.Part.Of.Romance.Is.Anal.XXX.720p.HEVC.x265.PRT.mp4": 841454580}
创建时间: 2026-04-20 19:58:15 大小:802.47 MB 文件数量:2 热度:0
    {"台湾超强炮王「宇宙列车」「spacetrain7654」OF约炮实录.mp4": 160003288}
创建时间: 2026-04-20 19:57:27 大小:152.59 MB 文件数量:1 热度:0
    {"韩国全能肥臀OL淫妻少妇「neno_xex」OF微剧情私拍,舔屁眼,户外露出调教,3P多人性爱.mp4": 102685299}
创建时间: 2026-04-20 19:55:29 大小:97.93 MB 文件数量:1 热度:0
    ... 1994).mkv": 2889461779, "The Secret of Roan Inish (John Sayles, 1994 ... .srt": 64757, "The Secret of Roan Inish (John Sayles, 1994 ... .srt": 68453, "The Secret of Roan Inish (John Sayles, 1994 ... romanian.srt": 68798, "The Secret of Roan Inish (John Sayles, 1994 ...
创建时间: 2026-04-20 19:54:25 大小:2.69 GB 文件数量:12 热度:0
    ... , "The Good Doctor S05E03 Measure of Intelligence 720p 10bit WEBRip 2CH ... , "The Good Doctor S05E03 Measure of Intelligence 720p 10bit WEBRip 2CH ...
创建时间: 2026-04-20 19:51:49 大小:204.59 MB 文件数量:3 热度:0